Time,TemperatureF,DewpointF,PressureIn,WindDirection,WindDirectionDegrees,WindSpeedMPH,WindSpeedGustMPH,Humidity,HourlyPrecipIn,Conditions,Clouds,dailyrainin,SolarRadiationWatts/m^2,SoftwareType,DateUTC
2017-04-30 00:13:00,64.7,49.0,29.77,NNW,328,0.0,-999.0,58,-99.99,,,0.00,0,weatherlink.com 1.10,2017-04-30 05:13:00,
2017-04-30 00:28:00,64.5,49.0,29.76,North,9,3.0,-999.0,58,-99.99,,,0.00,0,weatherlink.com 1.10,2017-04-30 05:28:00,
2017-04-30 00:43:00,64.5,49.0,29.74,NNE,19,0.0,-999.0,57,-99.99,,,0.00,0,weatherlink.com 1.10,2017-04-30 05:43:00,
2017-04-30 00:58:00,64.3,49.0,29.77,North,360,0.0,-999.0,58,-99.99,,,0.00,0,weatherlink.com 1.10,2017-04-30 05:58:00,
2017-04-30 01:13:00,64.2,49.0,29.77,NNE,27,0.0,-999.0,58,-99.99,,,0.00,0,weatherlink.com 1.10,2017-04-30 06:13:00,
2017-04-30 01:28:00,63.9,50.0,29.78,NNE,22,0.0,-999.0,61,-99.99,,,0.00,0,weatherlink.com 1.10,2017-04-30 06:28:00,
2017-04-30 01:43:00,62.5,52.0,29.80,North,355,0.0,-999.0,68,-99.99,,,0.07,0,weatherlink.com 1.10,2017-04-30 06:43:00,
2017-04-30 01:58:00,60.3,47.0,29.81,North,355,0.0,-999.0,61,-99.99,,,0.10,0,weatherlink.com 1.10,2017-04-30 06:58:00,
2017-04-30 02:13:00,58.9,36.0,29.79,North,355,0.0,-999.0,43,-99.99,,,0.10,0,weatherlink.com 1.10,2017-04-30 07:13:00,
2017-04-30 02:28:00,57.9,23.0,29.85,West,279,0.0,-999.0,26,-99.99,,,0.10,0,weatherlink.com 1.10,2017-04-30 07:28:00,
2017-04-30 02:43:00,57.5,13.0,29.80,West,281,0.0,-999.0,17,-99.99,,,0.12,0,weatherlink.com 1.10,2017-04-30 07:43:00,
2017-04-30 02:58:00,57.1,12.0,29.78,WNW,283,0.0,-999.0,17,-99.99,,,0.12,0,weatherlink.com 1.10,2017-04-30 07:58:00,
2017-04-30 03:13:00,56.9,-2.0,29.78,WNW,284,0.0,-999.0,9,-99.99,,,0.13,0,weatherlink.com 1.10,2017-04-30 08:13:00,
2017-04-30 03:29:00,56.9,-10.0,29.78,WNW,284,0.0,-999.0,6,-99.99,,,0.13,0,weatherlink.com 1.10,2017-04-30 08:29:00,
2017-04-30 03:44:00,56.7,-7.0,29.79,WNW,284,0.0,-999.0,7,-99.99,,,0.13,0,weatherlink.com 1.10,2017-04-30 08:44:00,
2017-04-30 03:59:00,56.6,-99.9,29.81,West,274,0.0,-999.0,0,-99.99,,,0.14,0,weatherlink.com 1.10,2017-04-30 08:59:00,
2017-04-30 04:14:00,56.3,-11.0,29.76,ENE,63,0.0,-999.0,6,-99.99,,,0.17,0,weatherlink.com 1.10,2017-04-30 09:14:00,
2017-04-30 04:29:00,55.7,0.0,29.76,NW,304,0.0,-999.0,10,-99.99,,,0.18,0,weatherlink.com 1.10,2017-04-30 09:29:00,
2017-04-30 04:44:00,55.7,-11.0,29.79,NW,304,0.0,-999.0,6,-99.99,,,0.18,0,weatherlink.com 1.10,2017-04-30 09:44:00,
2017-04-30 04:59:00,55.5,-8.0,29.79,NW,309,0.0,-999.0,7,-99.99,,,0.19,0,weatherlink.com 1.10,2017-04-30 09:59:00,
2017-04-30 05:14:00,55.4,-8.0,29.79,NW,309,0.0,-999.0,7,-99.99,,,0.20,0,weatherlink.com 1.10,2017-04-30 10:14:00,
2017-04-30 05:29:00,55.3,-11.0,29.79,NW,309,0.0,-999.0,6,-99.99,,,0.20,0,weatherlink.com 1.10,2017-04-30 10:29:00,
2017-04-30 05:44:00,55.2,-20.0,29.80,NW,309,0.0,-999.0,4,-99.99,,,0.20,0,weatherlink.com 1.10,2017-04-30 10:44:00,
2017-04-30 05:59:00,55.0,-25.0,29.80,WNW,300,0.0,-999.0,3,-99.99,,,0.20,0,weatherlink.com 1.10,2017-04-30 10:59:00,
2017-04-30 06:14:00,55.0,-20.0,29.81,NW,311,0.0,-999.0,4,-99.99,,,0.20,0,weatherlink.com 1.10,2017-04-30 11:14:00,
2017-04-30 06:29:00,54.9,17.0,29.83,WNW,295,8.0,-999.0,22,-99.99,,,0.20,0,weatherlink.com 1.10,2017-04-30 11:29:00,
2017-04-30 06:44:00,54.2,24.0,29.83,NW,321,6.0,-999.0,31,-99.99,,,0.20,0,weatherlink.com 1.10,2017-04-30 11:44:00,
2017-04-30 07:00:00,53.5,31.0,29.84,NW,313,13.0,-999.0,42,-99.99,,,0.21,0,weatherlink.com 1.10,2017-04-30 12:00:00,
2017-04-30 07:15:00,52.8,26.0,29.85,NW,305,5.0,-999.0,36,-99.99,,,0.21,5,weatherlink.com 1.10,2017-04-30 12:15:00,
2017-04-30 07:30:00,52.6,23.0,29.86,WNW,298,8.0,-999.0,31,-99.99,,,0.21,14,weatherlink.com 1.10,2017-04-30 12:30:00,
2017-04-30 07:45:00,52.4,28.0,29.86,WNW,288,5.0,-999.0,39,-99.99,,,0.21,21,weatherlink.com 1.10,2017-04-30 12:45:00,
2017-04-30 08:00:00,52.3,32.0,29.87,NW,304,7.0,-999.0,47,-99.99,,,0.21,44,weatherlink.com 1.10,2017-04-30 13:00:00,
2017-04-30 08:15:00,52.3,40.0,29.88,WNW,285,2.0,-999.0,63,-99.99,,,0.21,56,weatherlink.com 1.10,2017-04-30 13:15:00,
2017-04-30 08:30:00,52.1,40.0,29.88,WNW,292,5.0,-999.0,64,-99.99,,,0.21,98,weatherlink.com 1.10,2017-04-30 13:30:00,
2017-04-30 08:45:00,52.2,40.0,29.88,NW,306,7.0,-999.0,63,-99.99,,,0.21,95,weatherlink.com 1.10,2017-04-30 13:45:00,
2017-04-30 09:00:00,52.5,41.0,29.88,NW,313,8.0,-999.0,65,-99.99,,,0.21,86,weatherlink.com 1.10,2017-04-30 14:00:00,
2017-04-30 09:15:00,52.8,42.0,29.89,NW,315,2.0,-999.0,66,-99.99,,,0.21,91,weatherlink.com 1.10,2017-04-30 14:15:00,
2017-04-30 09:30:00,53.8,45.0,29.89,NNW,331,4.0,-999.0,71,-99.99,,,0.21,578,weatherlink.com 1.10,2017-04-30 14:30:00,
2017-04-30 09:45:00,54.7,43.0,29.90,WNW,292,20.0,-999.0,64,-99.99,,,0.21,613,weatherlink.com 1.10,2017-04-30 14:45:00,
2017-04-30 10:00:00,56.3,44.0,29.90,NW,304,11.0,-999.0,64,-99.99,,,0.21,649,weatherlink.com 1.10,2017-04-30 15:00:00,
2017-04-30 10:15:00,57.2,44.0,29.91,WNW,289,7.0,-999.0,62,-99.99,,,0.21,701,weatherlink.com 1.10,2017-04-30 15:15:00,
2017-04-30 10:30:00,58.1,43.0,29.92,WNW,286,5.0,-999.0,57,-99.99,,,0.21,759,weatherlink.com 1.10,2017-04-30 15:30:00,
2017-04-30 10:46:00,59.6,45.0,29.91,NW,305,5.0,-999.0,58,-99.99,,,0.21,809,weatherlink.com 1.10,2017-04-30 15:46:00,
2017-04-30 11:01:00,61.3,44.0,29.92,NW,311,9.0,-999.0,54,-99.99,,,0.21,844,weatherlink.com 1.10,2017-04-30 16:01:00,
2017-04-30 11:16:00,62.7,45.0,29.92,WNW,296,12.0,-999.0,53,-99.99,,,0.21,882,weatherlink.com 1.10,2017-04-30 16:16:00,
2017-04-30 11:31:00,62.9,43.0,29.91,NW,309,14.0,-999.0,48,-99.99,,,0.21,916,weatherlink.com 1.10,2017-04-30 16:31:00,
2017-04-30 11:46:00,63.6,43.0,29.91,North,360,3.0,-999.0,47,-99.99,,,0.21,951,weatherlink.com 1.10,2017-04-30 16:46:00,
2017-04-30 12:01:00,64.4,45.0,29.92,WNW,296,5.0,-999.0,49,-99.99,,,0.21,837,weatherlink.com 1.10,2017-04-30 17:01:00,
2017-04-30 12:16:00,65.3,43.0,29.91,NW,306,11.0,-999.0,45,-99.99,,,0.21,188,weatherlink.com 1.10,2017-04-30 17:16:00,
2017-04-30 12:31:00,66.1,42.0,29.91,WNW,284,4.0,-999.0,42,-99.99,,,0.21,1009,weatherlink.com 1.10,2017-04-30 17:31:00,
2017-04-30 12:46:00,67.3,43.0,29.90,West,281,9.0,-999.0,42,-99.99,,,0.21,1025,weatherlink.com 1.10,2017-04-30 17:46:00,
2017-04-30 13:01:00,67.9,44.0,29.89,North,9,7.0,-999.0,42,-99.99,,,0.21,918,weatherlink.com 1.10,2017-04-30 18:01:00,